Wind_Speed
45 45 46 46 47 47 48 48 49 49 50 50 50 51 52 53 54 55 56 57 57 59 60 61 62 63 64 64 65 65 63 62 62 61 60 61 63 63 62 62 62 61 60 59 58 57 55 53 52 53 53 53 54 53 54 55 54 55 55 55 54 52 49 45 43 42 40 37 33 31 31 31 31 32 33 36 37 40 39 33 33 36 34 33 38 40 36 35
44 44 45 46 46 47 48 49 49 50 51 51 51 52 52 52 53 53 54 55 55 56 58 60 61 62 63 64 64 64 64 63 62 61 60 61 62 62 63 63 63 62 61 60 59 58 57 55 54 53 53 51 51 51 54 54 55 56 55 55 54 51 48 45 43 43 41 39 35 33 32 32 33 33 34 36 38 41 37 30 34 37 35 34 38 41 38 39
43 43 44 45 45 46 47 48 49 50 51 52 52 53 53 53 53 53 54 54 54 55 56 58 60 61 62 63 63 63 64 64 63 62 62 61 61 62 63 62 63 63 61 61 60 59 59 57 56 55 53 51 49 49 51 52 53 54 54 55 52 49 48 45 44 43 42 39 36 35 33 33 35 34 35 36 39 41 33 29 36 39 38 38 39 41 41 42
43 43 43 43 44 45 46 46 48 49 50 51 52 53 53 54 54 54 54 54 55 55 55 57 58 60 62 62 62 62 62 63 63 63 63 62 61 61 62 62 62 62 62 62 61 60 59 59 58 56 55 52 50 49 49 48 49 51 52 51 48 47 47 45 43 43 41 39 37 35 34 34 35 35 36 37 40 41 32 30 36 37 37 37 37 39 40 41
43 43 43 43 43 44 44 45 46 47 48 49 50 51 52 52 53 54 54 55 55 55 56 56 57 59 60 61 61 60 61 62 63 64 63 63 62 61 61 61 61 61 62 62 61 61 60 60 58 57 56 54 52 50 48 46 47 48 47 46 44 45 45 43 41 41 39 37 35 35 34 35 36 38 39 39 41 40 33 29 32 33 33 33 34 36 38 39
44 44 44 43 43 43 43 44 45 46 47 48 49 50 50 51 51 52 53 54 54 55 56 56 57 58 59 61 60 60 60 61 62 63 63 62 61 60 60 60 60 60 61 61 60 60 60 60 59 58 56 55 54 51 47 45 46 45 43 41 41 41 40 38 38 39 36 34 35 35 34 36 38 40 41 41 41 38 32 28 29 31 31 31 33 35 36 37
43 43 43 43 43 43 43 44 44 46 47 47 48 49 50 50 51 51 52 53 53 54 55 55 56 57 59 60 60 60 59 60 61 61 61 61 60 59 59 59 59 59 60 60 60 59 59 60 59 58 57 55 54 52 49 47 46 45 42 40 38 37 36 34 34 34 33 32 33 35 35 36 39 41 42 43 42 36 31 28 29 31 32 33 34 34 34 34
41 41 41 41 41 41 42 43 44 45 46 47 48 48 49 50 51 51 52 52 52 53 53 54 55 56 58 59 60 59 58 59 61 60 60 59 59 58 58 58 59 59 59 59 58 58 58 58 58 58 58 55 54 53 50 49 48 46 42 40 38 36 33 31 31 31 30 28 31 37 38 39 41 43 44 45 43 37 33 31 30 32 34 36 37 36 35 34
39 39 38 38 38 39 40 41 42 44 45 46 48 48 49 50 51 51 52 52 52 52 53 54 54 54 56 57 59 57 57 60 61 60 60 59 59 58 58 57 57 57 57 57 57 57 57 58 57 57 57 56 55 53 52 51 49 46 42 41 39 36 33 31 30 29 28 28 33 39 41 42 43 45 45 45 45 40 34 34 34 35 37 39 40 39 39 38
36 35 36 36 37 37 38 40 41 42 44 45 47 48 49 50 50 51 52 53 53 53 53 53 54 54 54 56 57 55 56 59 59 59 59 58 58 58 58 57 56 55 56 56 56 56 55 55 56 56 56 55 55 54 53 52 49 46 43 41 39 37 34 32 31 29 28 31 36 41 43 43 45 47 45 43 43 36 30 32 35 37 39 42 43 43 44 42
33 34 34 35 36 38 39 40 41 42 44 45 47 48 50 50 51 52 52 53 53 53 53 54 54 54 54 54 54 53 55 57 58 58 58 57 56 56 57 57 57 55 55 55 55 55 54 54 54 55 56 55 55 54 53 52 50 49 46 43 41 39 37 35 32 30 31 33 38 42 44 45 47 46 43 41 41 32 27 30 33 36 40 44 46 46 47 45
33 34 35 37 38 40 41 42 43 44 45 46 48 49 51 52 54 54 54 54 54 55 54 54 54 53 54 53 50 52 56 56 58 58 57 57 56 55 56 56 56 56 55 54 54 54 54 53 54 55 55 54 54 53 53 53 52 50 48 46 44 42 41 38 34 31 32 34 38 43 47 49 47 41 39 42 42 32 27 30 30 33 38 43 46 46 47 45
35 36 38 39 41 43 44 45 45 45 45 45 47 48 50 53 55 57 57 57 56 57 56 55 55 54 55 52 47 51 56 56 57 56 55 56 55 54 55 56 56 56 55 54 53 53 53 53 54 53 53 53 53 53 53 53 52 50 49 48 46 46 44 40 36 34 34 34 38 45 50 48 42 35 35 41 42 34 30 32 31 32 35 39 43 43 43 42
37 38 40 41 43 44 44 44 44 45 46 47 48 50 51 53 54 57 60 61 60 59 58 58 57 56 55 50 47 51 56 55 55 53 53 54 53 52 53 55 55 55 54 54 53 53 52 53 53 53 53 52 52 52 52 52 51 50 50 50 49 49 45 40 39 37 36 36 38 45 48 42 35 31 32 36 37 33 30 31 31 31 33 36 38 37 36 35
39 40 42 43 44 44 44 45 46 48 49 49 50 52 54 54 54 55 59 63 64 63 61 60 59 58 55 50 49 53 53 53 53 53 53 53 53 52 52 53 54 54 54 53 54 53 52 53 53 52 52 52 51 51 51 51 51 51 52 52 51 50 45 42 41 39 37 38 40 43 44 36 31 29 28 30 31 29 29 30 30 31 31 32 33 32 30 29
40 42 44 44 44 45 46 48 49 50 50 50 51 53 56 58 58 57 56 60 65 66 64 63 62 60 56 53 53 53 52 53 54 55 54 53 52 51 53 54 53 53 53 53 54 54 53 53 53 52 51 51 52 52 52 51 51 51 52 52 52 51 48 44 42 40 38 39 41 42 39 31 27 27 27 28 28 27 28 29 29 29 28 28 29 28 25 23
41 43 45 44 45 46 47 48 49 48 49 50 53 58 62 63 60 55 52 55 60 64 66 66 65 62 58 57 57 55 54 55 55 56 55 53 51 50 52 53 53 53 53 53 54 54 54 54 54 53 52 51 51 52 53 54 53 52 52 52 52 52 50 46 43 40 40 40 41 40 35 29 26 28 29 29 29 28 27 27 28 27 24 25 26 25 22 20
43 44 44 44 45 46 46 46 45 45 48 51 57 61 59 54 49 44 44 47 52 59 64 66 68 64 61 61 61 60 57 55 55 55 54 52 51 50 52 53 54 54 54 54 54 55 55 55 55 54 53 52 52 53 54 54 53 53 54 54 53 52 50 47 44 42 40 40 39 37 34 30 28 30 31 31 30 28 27 27 27 25 23 22 23 23 21 19
45 44 43 44 45 43 42 41 41 44 47 52 58 54 44 36 33 32 34 37 43 50 57 63 67 66 65 65 64 62 59 57 57 56 54 52 50 49 51 54 55 55 55 55 54 55 56 56 56 56 54 53 52 53 52 52 53 53 53 52 50 51 49 46 45 43 39 38 38 36 34 31 30 31 32 31 30 28 27 27 26 24 22 21 22 22 21 19
45 44 44 44 42 39 37 37 38 42 46 52 53 41 31 27 24 24 25 27 32 39 48 56 62 66 67 67 66 63 62 61 59 57 56 53 51 50 51 53 55 56 56 55 54 55 55 57 56 53 50 50 51 52 51 52 52 51 51 50 49 49 47 45 44 42 38 37 37 36 34 32 31 31 32 32 31 29 26 26 25 24 22 21 20 21 20 20
45 44 44 43 37 34 34 34 36 40 44 49 45 31 25 24 23 23 23 22 24 30 38 46 56 62 64 65 67 66 64 63 61 59 57 54 52 51 52 54 55 55 55 55 55 54 56 56 52 49 49 51 52 52 51 50 50 50 50 50 50 48 46 44 42 40 38 37 37 36 36 36 34 33 34 33 31 29 27 26 25 23 22 20 19 20 20 21
44 44 43 38 32 32 32 31 35 40 42 44 39 26 23 24 24 24 22 18 19 25 30 36 47 55 57 59 65 68 67 64 62 61 60 57 53 51 52 54 54 53 54 56 56 55 55 52 49 50 53 53 53 52 51 49 49 50 50 51 50 48 46 44 41 38 38 38 36 35 37 37 36 35 34 33 31 29 27 26 24 23 21 20 19 19 20 22
43 42 38 32 30 32 30 30 34 39 40 41 36 25 21 22 22 21 20 15 12 19 25 30 39 48 51 52 59 68 68 65 63 63 62 60 55 52 52 53 52 53 54 56 55 55 53 50 51 53 54 53 53 53 51 49 49 50 51 51 50 48 47 45 40 38 38 38 35 35 37 38 36 36 35 32 31 30 27 24 23 22 20 20 20 20 20 22
41 39 32 29 30 31 29 29 32 36 37 37 33 25 20 20 21 19 19 15 8 14 24 28 33 40 44 46 55 66 69 66 65 64 63 61 58 54 53 52 53 53 53 53 53 53 52 52 53 53 52 52 53 53 52 50 50 50 51 51 49 48 47 43 38 38 38 37 36 37 38 40 38 35 33 32 31 30 27 24 21 20 20 20 21 21 22 23
38 33 29 28 30 29 28 29 30 32 34 33 31 26 21 19 19 18 17 14 10 14 21 24 26 31 37 43 52 62 67 68 66 65 64 62 59 56 54 54 54 53 51 52 53 53 54 53 50 49 50 51 52 53 52 51 50 50 51 50 48 47 46 41 37 38 38 39 41 40 40 41 38 33 32 32 31 29 27 25 22 20 20 20 20 21 23 24
35 30 27 28 29 29 28 28 29 29 30 30 28 26 24 21 18 17 16 13 10 11 14 17 18 22 30 38 45 55 64 67 64 64 64 63 61 58 56 55 54 53 51 51 53 54 55 53 47 47 49 49 52 53 52 50 50 50 50 49 47 46 44 41 38 37 39 41 41 38 39 41 37 33 32 31 30 28 26 25 23 21 21 20 20 19 21 22
33 29 26 27 29 28 28 28 28 27 26 27 26 24 25 24 21 17 15 12 7 5 8 10 11 16 24 32 39 48 58 61 60 61 63 63 63 61 59 57 53 53 52 53 55 55 54 52 48 48 49 49 52 53 51 50 50 49 48 47 46 44 42 41 39 38 39 39 37 35 38 40 37 33 31 30 29 27 25 25 23 21 21 21 20 19 18 18
33 29 26 26 28 27 27 28 28 26 24 24 24 22 22 21 20 17 14 12 9 8 9 7 6 11 21 30 39 45 52 55 54 56 59 60 63 62 60 58 55 54 54 54 54 53 53 53 50 49 50 50 51 51 50 50 49 46 45 45 44 42 40 39 39 39 39 39 38 38 38 38 36 33 30 31 30 27 25 24 21 19 21 21 21 19 16 16
35 31 28 27 28 27 27 27 28 27 23 21 21 20 18 17 16 14 13 12 11 11 10 7 7 7 16 25 33 41 49 51 48 50 55 56 59 60 59 59 57 56 56 56 54 54 55 53 50 49 50 49 49 51 50 49 48 44 43 43 41 40 38 37 38 39 40 43 43 41 39 38 35 33 33 35 32 27 24 21 17 17 19 20 20 18 16 17
36 32 30 28 28 28 28 27 27 27 24 20 19 18 17 15 13 11 12 13 13 12 11 8 7 4 8 17 25 36 44 47 46 49 52 53 55 55 56 59 59 58 58 58 57 56 55 52 49 49 48 47 48 51 50 49 47 44 42 40 39 38 37 38 38 36 39 47 47 43 39 36 34 33 35 35 30 25 22 20 19 19 20 20 19 18 17 18
36 33 32 30 29 29 29 27 28 27 23 20 19 17 15 14 13 10 10 12 11 11 12 9 5 4 4 10 18 28 36 42 46 47 47 51 53 53 55 58 60 60 59 60 58 55 55 53 50 49 48 48 50 51 51 50 47 45 43 40 39 39 38 40 38 35 41 50 49 46 40 34 33 33 31 30 28 27 25 21 19 20 22 22 21 20 20 19
36 33 32 32 31 30 29 28 28 26 22 21 21 18 14 12 12 10 9 9 9 10 10 8 6 6 4 7 12 20 29 37 45 47 44 49 54 54 55 57 58 58 58 58 57 55 55 54 51 50 50 51 52 52 52 50 48 48 47 45 43 42 41 43 41 40 46 50 48 44 38 34 34 31 27 27 29 30 28 25 21 20 21 22 22 21 20 20
35 33 33 33 32 32 30 29 29 27 24 23 22 18 14 11 10 8 8 8 9 9 7 7 9 7 7 8 12 18 24 33 44 48 46 48 53 55 55 55 55 55 55 55 56 55 55 54 54 54 53 52 52 53 52 51 50 50 51 49 47 46 47 46 44 44 47 50 47 41 36 35 35 30 27 29 31 31 31 30 28 26 24 23 23 22 20 19
35 34 33 33 33 33 32 31 30 29 27 24 21 17 14 11 9 6 6 7 7 7 8 9 8 7 8 10 15 18 22 31 43 49 48 50 55 57 57 56 55 55 55 55 56 56 55 55 56 54 53 52 51 50 50 50 49 50 52 52 50 50 48 45 44 46 49 50 45 37 34 36 35 31 30 30 32 34 35 34 31 28 26 24 23 21 19 18
36 35 33 33 32 32 30 30 31 31 29 25 20 17 14 12 9 4 3 5 3 5 10 9 4 6 9 12 15 18 24 33 43 49 50 52 56 58 58 57 55 55 56 56 56 55 54 55 53 51 50 49 49 49 48 48 47 49 53 55 53 50 46 42 43 46 47 46 43 38 35 35 35 35 35 35 36 37 37 34 30 27 25 23 22 19 18 17
36 35 33 31 31 31 28 27 28 28 28 25 20 16 13 12 9 3 2 4 2 4 7 4 2 5 8 11 16 23 30 34 41 48 50 52 55 57 57 56 54 55 55 54 53 53 53 52 49 49 49 48 48 48 48 49 47 50 55 56 53 49 45 41 39 42 44 40 39 41 40 39 39 37 37 38 38 38 38 33 28 26 24 22 21 20 19 18
34 34 32 30 30 32 29 27 27 25 24 24 21 15 12 12 9 4 4 6 3 3 5 3 4 4 7 12 22 31 32 31 38 45 48 51 54 56 57 56 55 54 52 51 51 51 50 48 48 48 47 47 47 46 47 48 46 50 55 54 52 49 46 42 35 38 44 40 36 41 42 41 40 39 38 39 39 37 37 33 27 24 22 19 18 18 19 19
32 33 32 30 30 32 32 30 30 29 27 26 23 19 15 13 9 6 6 6 4 5 5 4 5 6 12 21 29 33 30 28 34 41 45 48 51 54 57 56 55 53 50 49 50 50 47 44 45 46 45 45 47 45 45 47 46 49 52 52 54 52 48 46 40 39 45 43 37 39 42 43 43 44 43 41 39 35 33 28 21 17 16 16 17 17 17 17
31 32 32 30 30 31 32 30 30 30 30 29 26 23 21 17 14 10 7 5 5 6 6 6 9 15 23 30 30 28 25 25 30 38 43 45 48 51 55 56 53 50 48 48 48 47 44 41 40 43 44 41 43 44 46 47 48 49 49 52 56 54 50 49 46 42 42 42 39 37 40 45 47 48 46 41 35 31 27 24 18 13 12 14 16 15 14 14
30 32 32 30 30 31 31 30 28 28 28 28 27 26 24 20 16 12 8 7 7 9 9 10 18 26 28 27 25 24 21 20 26 35 40 43 47 50 53 55 51 45 44 45 44 42 40 36 32 37 41 38 40 47 47 47 49 50 50 53 58 57 52 48 46 46 43 39 40 39 40 44 45 45 43 37 31 29 27 23 19 15 11 12 13 13 13 13
29 31 31 30 30 31 32 31 28 25 23 23 24 25 24 20 18 16 13 11 11 11 12 17 26 29 25 23 23 21 19 20 24 31 39 43 45 47 51 51 48 43 42 41 40 39 37 32 27 32 39 39 41 46 45 44 48 49 48 51 55 58 56 49 45 49 49 42 40 42 43 43 42 41 40 34 30 29 29 27 24 20 16 15 15 14 14 14
28 30 31 30 29 30 31 30 26 23 21 20 21 22 21 20 20 20 17 15 15 16 20 25 28 25 22 21 20 18 19 21 23 30 38 42 42 45 47 47 46 46 44 41 39 38 36 32 29 31 38 40 40 41 41 44 47 46 46 49 53 55 55 51 44 43 48 47 42 42 44 44 43 43 41 35 32 32 33 33 30 25 21 20 18 16 15 13
27 28 29 30 29 28 29 27 23 22 22 20 21 21 20 21 21 20 20 21 23 26 28 27 24 21 19 18 19 20 19 21 26 33 37 39 42 44 45 46 47 48 47 44 41 37 35 33 31 33 38 39 38 38 40 44 46 46 47 49 52 52 48 45 41 35 38 45 48 46 46 44 44 45 43 36 34 34 34 34 31 26 22 21 20 19 18 16
26 26 25 28 29 27 26 24 21 22 24 24 22 20 17 18 19 19 21 26 28 29 27 23 20 18 19 19 21 23 23 25 32 37 37 40 44 45 47 48 48 49 49 47 43 37 34 35 33 35 40 40 40 43 44 45 47 49 50 49 51 49 41 35 35 32 31 38 45 49 49 48 46 45 41 37 36 35 33 31 29 25 22 21 20 21 21 21
23 23 22 24 28 28 26 24 19 19 23 26 25 22 19 18 19 20 23 27 28 26 23 20 18 18 20 22 23 24 27 32 37 40 41 44 47 48 48 48 48 49 48 47 43 36 34 38 37 38 42 43 44 48 47 44 47 52 53 50 48 47 40 32 30 32 32 30 32 39 43 45 44 41 37 36 37 36 33 30 28 24 21 19 18 19 20 21
19 20 19 20 26 29 27 25 20 17 19 23 25 25 24 21 21 23 23 24 24 21 19 19 20 21 22 25 25 25 29 35 39 42 45 47 48 49 47 45 47 48 46 44 43 37 36 41 42 40 41 41 44 48 46 44 48 53 53 49 48 48 43 34 30 33 33 27 23 27 32 33 33 33 32 32 34 32 30 29 27 23 20 17 17 17 18 19
18 19 19 19 22 26 25 25 22 17 16 19 22 24 23 21 20 21 22 23 22 21 21 23 23 23 24 25 26 27 31 36 40 43 45 47 47 44 41 43 47 48 45 43 41 38 38 42 42 40 40 41 44 48 47 44 47 52 52 49 47 47 44 37 33 35 35 31 26 26 27 27 25 25 27 28 29 29 27 26 24 21 17 17 19 20 20 19
20 20 20 19 20 21 22 23 23 19 16 16 17 18 18 17 16 15 17 20 21 20 21 22 21 21 22 23 25 27 31 36 39 42 45 45 42 38 38 44 48 46 43 41 40 39 39 41 40 39 40 41 45 49 47 43 45 49 52 51 44 40 41 39 35 36 36 35 33 29 26 26 24 23 24 24 24 24 22 20 17 15 14 15 18 20 21 21
20 19 18 18 19 18 18 20 22 21 19 17 16 14 12 13 13 12 12 14 16 17 17 16 15 17 20 22 24 27 31 35 37 41 43 40 36 34 37 43 46 44 38 36 39 40 40 42 40 37 40 43 46 50 48 44 46 50 54 55 46 38 40 39 35 36 35 33 34 31 26 26 26 25 24 22 22 22 20 17 14 11 11 12 12 13 16 18
16 15 15 17 18 17 16 17 19 20 20 18 16 13 11 10 10 10 9 9 9 13 16 14 13 16 19 23 26 29 31 31 33 37 37 34 32 33 36 42 46 44 37 35 38 38 39 42 40 37 40 44 46 49 49 47 49 52 54 53 47 42 43 41 38 37 34 31 32 31 28 27 27 27 26 25 24 24 20 16 14 12 12 12 11 10 12 14
18 16 14 14 15 14 13 14 15 16 18 17 15 14 12 8 7 8 9 10 12 15 16 13 14 16 18 22 28 31 30 26 27 31 29 27 31 34 34 37 41 42 38 36 37 37 37 39 38 36 38 40 42 47 49 49 50 51 50 48 44 42 42 42 41 39 35 32 32 33 33 32 30 29 29 28 28 26 21 18 17 14 13 12 11 10 11 14
21 20 16 12 11 11 11 11 12 12 14 16 14 12 10 6 5 7 9 12 15 16 13 10 12 15 17 20 27 30 28 25 26 29 24 22 29 35 31 26 27 34 36 35 36 36 35 35 33 33 33 34 41 48 50 48 47 48 49 46 42 41 39 39 41 40 38 37 35 34 35 35 33 32 31 31 30 27 23 21 19 16 15 16 16 15 14 14
Wind_Direction
278 277 276 275 274 273 271 270 269 267 265 263 261 258 256 255 253 252 251 249 247 246 245 244 242 240 239 239 238 236 235 234 235 236 236 236 237 238 238 239 239 239 239 239 239 239 240 238 238 238 237 236 235 234 235 236 236 237 237 238 240 241 241 242 244 246 248 247 244 243 245 247 247 250 252 250 247 247 251 253 251 253 255 256 260 263 267 272
279 277 276 275 274 272 271 270 269 267 266 264 262 260 258 255 254 252 251 250 248 246 245 244 243 241 239 238 238 237 235 234 234 234 234 235 236 237 237 237 238 238 238 238 238 238 239 238 238 238 237 236 235 234 235 235 236 237 237 239 240 241 242 243 245 246 247 248 248 247 247 249 250 251 252 252 251 249 247 249 253 254 254 254 258 262 267 270
282 281 279 277 275 273 272 270 269 267 266 264 262 261 259 256 254 252 251 249 248 247 245 244 244 242 240 238 237 237 236 235 233 233 233 233 234 235 235 236 236 237 236 237 237 237 238 238 238 238 237 236 235 235 235 235 236 237 237 239 240 241 243 243 244 246 248 249 250 250 249 250 252 252 251 250 251 251 244 240 248 251 252 254 257 262 265 266
286 284 281 279 277 275 273 271 270 268 266 264 262 261 259 257 255 253 251 249 247 246 245 244 243 243 241 239 237 236 236 235 234 233 233 232 232 233 234 234 235 236 236 235 236 236 237 237 238 237 238 237 236 235 235 235 236 237 238 239 241 242 243 243 244 246 248 250 250 250 249 248 250 249 248 246 247 250 243 235 242 247 250 253 256 260 262 263
288 287 285 282 280 277 275 273 271 269 267 265 263 261 259 258 256 254 252 249 247 245 244 243 242 242 242 240 237 235 235 235 235 234 233 232 231 231 232 233 233 234 235 235 235 235 235 236 237 237 237 237 236 236 235 236 237 238 239 240 242 242 242 242 244 245 246 248 247 246 245 243 242 242 242 242 244 247 244 238 242 249 251 254 257 258 259 261
291 289 287 285 282 279 277 274 272 271 269 266 264 262 260 258 257 255 253 251 248 246 244 242 241 241 241 240 238 236 234 234 234 234 233 232 231 230 231 232 232 233 234 234 234 234 234 235 236 236 236 236 236 236 236 237 238 238 239 240 240 241 241 241 242 243 243 243 241 239 238 236 237 238 240 241 243 243 243 243 247 252 254 259 262 262 261 263
294 292 289 286 283 280 277 275 272 270 268 267 265 263 260 259 257 255 254 252 249 247 245 243 241 240 239 239 239 237 235 234 233 233 233 232 231 231 231 232 232 232 232 233 233 233 234 234 235 235 235 235 236 236 235 235 236 236 236 238 238 239 239 237 238 239 238 236 235 234 230 228 232 237 238 239 242 244 245 244 246 252 257 261 263 263 264 265
295 292 289 286 284 281 278 275 272 270 268 266 265 263 261 259 257 255 253 252 250 248 246 244 242 240 238 237 238 237 236 235 233 231 232 232 231 231 231 232 232 232 231 232 232 232 233 233 233 234 234 234 234 234 234 234 234 234 234 236 237 236 235 233 233 232 231 227 226 230 228 226 229 233 234 236 240 243 245 245 245 251 258 262 263 264 267 268
295 292 289 286 284 281 279 277 274 272 270 268 266 263 261 259 257 255 253 251 249 248 246 244 243 241 239 237 236 235 235 235 233 231 231 230 230 230 231 231 232 232 232 232 231 231 231 232 232 233 233 232 232 232 232 232 233 233 233 234 235 234 233 230 229 226 223 216 217 225 227 229 234 234 235 238 241 243 245 247 248 251 255 259 261 263 268 269
296 293 291 289 286 284 282 279 277 275 273 271 269 266 264 261 258 255 253 250 248 246 245 243 242 241 239 238 236 234 235 235 234 233 232 230 230 230 230 230 230 231 232 232 231 231 231 231 231 232 231 230 230 230 231 232 232 232 231 232 233 233 230 227 225 222 217 211 211 219 224 230 236 238 240 244 247 249 253 254 254 255 257 260 262 262 264 264
297 294 292 290 289 287 285 282 280 278 276 274 271 269 267 264 261 258 254 251 247 245 243 242 240 239 238 237 236 235 235 234 233 232 232 230 229 230 230 230 230 229 230 231 231 230 229 230 230 230 230 229 229 228 229 230 229 229 228 228 229 230 228 224 222 220 216 212 211 216 221 227 234 240 246 250 251 254 258 257 256 258 259 261 263 263 262 261
297 295 294 293 292 291 290 288 286 283 281 278 275 272 269 266 263 259 256 252 248 244 241 240 238 237 236 236 235 235 234 232 231 230 230 230 228 228 228 228 229 229 228 229 230 230 229 228 228 229 229 228 228 227 227 227 226 226 226 226 226 227 226 223 220 218 218 216 212 214 219 225 233 242 248 251 253 255 256 255 255 256 257 259 261 262 262 264
300 299 299 298 297 296 295 293 292 289 287 284 281 278 274 269 265 260 256 253 249 246 241 238 236 234 234 233 232 234 234 231 231 230 230 230 229 228 227 226 226 227 227 227 227 229 228 228 228 228 228 228 227 227 226 226 225 225 226 226 225 226 226 223 219 215 217 217 212 214 220 227 234 240 246 250 253 256 254 255 256 256 257 259 262 262 264 267
304 304 304 303 302 301 300 298 297 295 292 290 288 284 280 275 269 264 258 253 249 246 243 239 235 233 232 228 228 232 233 231 230 229 228 228 228 227 226 226 225 224 224 224 225 225 226 227 227 227 227 227 226 226 226 225 224 223 224 225 225 227 227 224 220 215 216 217 215 218 222 229 236 238 244 249 253 256 255 255 257 258 260 262 265 267 267 270
308 309 309 308 306 305 304 303 301 299 297 295 293 290 288 283 277 270 261 254 249 245 242 240 236 233 229 225 226 230 231 230 228 225 224 224 224 224 223 224 223 223 222 222 222 222 223 224 224 225 226 225 224 224 224 223 223 222 223 225 226 228 227 223 221 217 216 217 217 223 226 229 237 238 240 245 249 253 252 253 255 257 259 262 266 269 270 271
311 312 312 311 310 309 307 305 303 302 301 300 298 296 294 291 286 279 267 256 250 245 242 240 237 233 228 224 224 227 227 227 226 222 221 222 222 221 221 220 221 221 221 220 220 219 219 220 221 222 224 224 223 223 222 221 221 221 224 227 226 227 225 221 221 218 217 218 220 228 231 232 235 238 238 241 244 246 247 249 251 254 257 260 265 270 273 271
314 315 315 314 313 311 308 306 305 305 306 305 303 301 298 293 289 281 268 256 249 245 241 239 236 233 228 225 224 224 224 224 226 224 220 219 219 219 220 219 218 219 220 219 219 218 217 217 218 219 220 222 223 222 221 220 220 221 222 225 226 226 224 221 220 219 217 219 224 230 235 233 231 235 237 238 241 243 246 249 252 255 258 262 266 270 272 268
317 317 318 317 315 311 309 308 308 310 310 308 307 304 297 290 284 277 265 254 246 242 240 237 235 232 228 226 225 223 222 222 225 225 221 218 217 217 218 218 216 216 217 218 218 217 217 216 216 217 217 218 220 222 223 223 222 221 221 222 223 225 224 222 220 219 218 220 225 231 235 233 229 232 235 237 240 244 248 251 255 260 264 266 269 270 269 268
319 320 319 317 315 311 310 310 313 314 314 314 314 307 294 285 282 277 267 255 245 240 238 236 232 230 228 227 226 224 222 221 222 224 222 218 216 216 217 217 216 214 215 216 217 216 217 216 215 216 219 221 223 224 225 224 221 220 220 221 223 225 225 223 220 219 219 221 226 229 233 232 230 232 236 239 242 246 249 252 256 262 265 266 266 267 268 267
321 321 320 318 315 312 312 314 317 319 321 325 323 308 287 285 288 286 279 265 250 241 237 234 230 226 226 227 226 223 221 220 220 222 222 219 215 214 215 216 216 214 214 215 216 216 216 216 217 220 224 225 224 222 221 222 220 217 218 220 222 225 226 224 222 219 217 220 224 227 230 231 231 233 237 239 241 245 249 252 257 262 263 263 261 263 265 264
324 322 321 320 317 315 317 318 321 325 330 335 331 308 284 288 292 292 287 277 265 251 240 235 229 223 223 226 226 223 221 219 219 220 222 221 218 215 214 216 216 215 214 214 214 215 215 217 219 221 222 221 219 218 218 219 219 218 217 218 219 222 225 224 222 220 218 219 221 223 227 229 229 230 234 238 241 245 248 251 255 259 260 261 260 260 261 261
326 324 323 322 319 320 322 320 323 329 335 343 339 314 289 290 292 294 293 286 276 263 250 239 232 223 219 222 224 222 220 218 218 219 220 220 218 217 216 216 216 215 213 212 213 214 216 219 219 217 216 216 216 216 215 216 217 217 217 217 217 219 222 223 220 218 219 221 221 222 227 229 230 231 233 236 240 244 247 250 254 256 257 258 258 259 259 259
329 328 327 324 323 326 326 322 326 332 339 348 348 327 307 301 295 296 300 298 279 267 259 246 235 226 218 218 222 222 219 217 216 217 218 218 216 215 216 217 215 213 211 211 213 215 218 218 215 213 213 214 215 215 213 212 213 215 216 217 217 217 218 219 217 214 217 220 221 222 227 231 231 232 233 235 238 242 246 248 252 255 255 255 255 257 258 259
332 333 332 327 329 332 329 325 327 334 341 352 356 344 327 316 306 301 305 306 283 259 257 248 237 229 220 216 220 221 218 215 215 215 217 217 215 213 214 216 215 213 212 211 212 215 217 216 213 211 211 211 213 215 212 209 210 213 215 216 216 216 217 217 215 212 214 218 220 219 225 230 230 230 232 234 238 242 245 245 245 249 250 251 253 255 258 261
336 336 333 330 334 337 334 330 330 336 343 353 2 359 347 333 322 314 313 312 288 261 259 254 241 230 222 216 217 218 217 215 213 213 215 215 215 213 212 214 214 213 212 211 211 211 214 214 212 211 211 211 212 214 213 210 208 211 214 215 215 215 215 213 212 212 212 217 220 218 222 229 229 229 230 233 237 242 245 244 240 242 245 248 253 257 258 261
339 337 333 331 335 339 339 336 334 338 345 352 2 8 4 356 345 331 325 324 301 276 272 264 245 229 223 218 217 217 216 214 212 212 213 213 213 211 210 211 212 211 210 209 210 210 211 211 208 209 210 211 212 212 213 211 208 209 212 213 214 214 213 209 206 208 212 219 223 221 224 230 231 229 231 233 237 240 244 245 244 244 244 248 254 257 259 261
340 337 332 331 335 339 341 341 340 341 345 350 358 11 16 14 10 1 353 355 348 323 308 282 249 227 219 214 213 216 216 213 211 211 211 211 212 210 209 208 209 210 207 207 209 208 210 209 204 205 207 208 211 212 212 211 209 209 210 210 212 213 213 209 203 203 209 217 223 223 227 232 233 232 234 237 238 240 244 250 254 250 244 247 250 250 256 262
341 337 331 329 334 339 341 342 344 345 346 349 353 4 17 21 21 18 16 20 21 6 349 325 280 235 220 214 211 211 211 210 211 211 208 210 211 209 208 207 205 206 206 206 207 206 208 208 202 202 205 206 209 210 210 210 209 207 205 207 210 212 213 210 204 202 206 213 217 219 223 228 232 233 233 235 238 241 248 257 258 248 240 241 241 243 253 264
343 339 334 330 332 337 340 341 343 345 346 348 350 353 4 15 21 20 15 9 8 10 4 349 333 271 233 226 216 208 206 205 205 207 206 207 209 207 207 206 203 202 203 204 204 204 205 206 202 201 204 204 206 208 208 209 207 202 201 204 207 208 207 203 200 200 204 211 215 216 220 225 228 228 229 232 235 241 251 257 251 237 233 232 233 241 254 263
346 343 339 334 332 334 337 338 339 342 344 346 347 346 348 355 5 16 12 359 359 8 6 354 346 318 248 237 221 208 204 199 197 201 203 202 204 204 204 205 202 199 200 201 202 202 202 202 200 200 202 202 204 206 205 207 205 196 195 200 202 202 198 194 193 196 204 212 214 214 217 223 227 228 231 235 240 248 254 254 250 240 233 230 235 245 253 258
350 349 345 341 337 335 337 339 338 341 348 349 345 340 341 342 346 3 9 0 359 359 2 2 337 320 275 243 225 210 201 195 191 193 197 198 198 198 199 202 201 198 198 200 200 200 200 199 197 197 200 200 202 205 203 204 203 192 189 193 195 194 192 191 191 196 206 212 215 215 216 222 228 230 236 242 245 249 248 248 253 247 236 236 243 249 251 253
355 354 352 348 344 342 343 342 340 344 353 352 345 338 335 335 339 350 358 2 5 357 4 10 330 299 253 227 218 207 198 192 187 183 187 194 195 193 195 199 200 198 199 200 199 199 199 198 195 195 199 199 201 203 201 202 200 191 186 187 189 190 189 191 192 198 207 213 215 215 216 224 232 234 238 243 243 244 245 246 249 249 244 243 246 249 251 253
359 359 357 354 351 350 349 346 344 351 357 352 346 338 330 331 333 344 4 16 15 6 7 354 322 282 241 214 194 195 195 190 184 178 180 188 191 190 191 195 198 199 200 200 199 198 198 197 195 195 197 199 201 201 199 199 196 191 188 187 187 188 188 191 193 199 208 214 215 214 216 223 230 232 232 235 239 243 245 245 247 251 251 247 245 246 249 252
3 3 1 358 357 356 355 352 351 355 357 353 351 343 330 325 322 334 24 30 25 15 1 341 310 257 233 210 189 187 188 186 181 177 178 183 186 187 187 189 193 195 197 198 199 198 196 197 197 196 197 198 201 200 198 199 196 191 189 187 188 189 189 190 193 199 209 214 214 213 216 220 222 222 224 232 240 243 245 245 245 248 250 247 245 246 249 253
6 4 3 2 3 3 2 1 359 359 359 357 356 351 335 321 311 306 26 30 32 7 359 352 301 222 210 198 186 181 180 180 178 177 178 181 184 185 185 186 188 191 194 195 198 198 196 197 198 197 197 197 199 198 197 199 196 189 186 187 187 188 189 190 194 200 208 214 214 213 215 219 221 223 227 233 237 240 244 243 240 243 248 247 245 247 250 254
8 5 4 6 10 11 9 6 1 360 0 357 354 353 340 329 323 300 339 2 358 2 10 19 181 185 185 184 175 170 170 173 175 176 177 179 182 183 183 183 184 189 192 193 196 198 197 197 197 198 197 195 196 197 196 197 193 186 188 190 187 184 188 193 197 202 207 214 217 215 216 219 222 224 226 230 233 237 242 245 245 246 246 246 245 247 250 251
9 7 6 9 14 15 13 9 7 7 8 4 360 357 348 341 339 318 326 345 352 33 50 93 145 146 158 167 163 158 157 166 174 176 176 178 182 182 180 180 181 186 190 192 194 196 197 197 197 199 198 194 194 197 198 197 191 187 191 190 186 186 191 195 200 206 207 212 217 218 219 222 223 223 224 228 232 237 243 248 251 246 241 245 249 247 247 247
11 9 9 12 14 16 16 17 19 20 20 19 17 17 14 9 9 359 348 358 20 51 70 106 124 127 140 146 148 147 149 164 173 174 175 177 181 182 179 177 178 181 186 190 193 193 193 194 197 198 197 194 193 195 197 195 189 187 190 189 187 190 193 194 200 205 207 210 215 218 221 224 227 228 229 232 235 240 244 244 242 240 240 246 247 245 245 245
14 11 10 11 12 14 17 21 24 23 23 24 27 32 34 32 34 34 30 32 47 74 89 108 122 124 128 134 138 142 151 167 172 173 175 174 178 183 180 174 174 178 183 189 191 189 189 190 194 197 195 193 193 194 195 193 187 185 188 190 190 192 193 196 201 205 208 212 215 216 220 223 227 230 232 234 236 239 241 237 234 239 242 238 234 234 237 238
16 12 11 10 10 14 18 21 24 25 25 28 31 37 41 42 43 43 42 49 71 95 93 101 123 126 125 129 136 141 150 165 170 173 173 172 176 182 178 170 169 173 181 185 186 184 184 184 188 195 194 191 193 194 194 192 186 184 187 189 190 192 195 199 205 208 210 214 217 217 221 224 226 230 233 234 234 235 236 234 235 238 232 229 230 232 233 233
15 15 13 9 8 14 19 22 26 28 28 31 32 34 39 46 50 49 50 63 83 99 97 107 122 125 122 125 133 138 147 158 166 173 173 171 175 177 172 165 162 167 175 178 177 177 177 174 177 189 192 192 194 195 194 190 186 185 186 186 190 195 198 202 208 211 211 215 220 220 224 227 227 229 233 233 232 234 236 237 240 242 238 242 246 239 230 227
15 16 17 14 11 14 20 25 30 32 33 35 33 35 42 51 56 55 56 69 88 102 109 114 120 123 122 126 129 133 146 153 159 170 171 167 168 169 164 159 159 163 167 169 170 171 172 168 170 184 192 192 191 190 189 189 186 184 183 184 190 197 202 205 209 214 215 218 221 222 224 229 230 231 234 235 236 240 244 246 248 248 244 245 245 234 222 220
14 14 17 19 16 15 21 30 37 37 36 37 38 41 46 52 58 60 65 82 96 104 112 117 120 123 125 128 128 128 138 150 155 161 163 160 160 159 156 155 160 163 164 164 165 166 169 168 170 183 188 187 184 181 182 186 186 183 182 186 191 195 201 207 210 216 221 223 225 225 225 228 232 235 237 239 241 244 247 250 250 248 244 242 240 234 230 231
12 12 14 20 21 21 27 35 42 42 39 40 44 47 48 53 62 70 83 95 102 104 110 115 116 118 121 125 127 128 134 146 150 151 152 153 153 153 154 158 163 164 163 163 163 164 168 168 171 183 184 180 179 178 178 182 184 184 184 186 189 192 197 204 206 212 221 225 228 229 230 231 233 237 240 240 241 242 244 248 248 245 240 238 240 241 239 238
12 11 15 21 23 28 32 35 40 43 42 47 52 56 61 69 77 87 98 105 107 106 106 105 105 112 119 121 121 125 134 142 145 145 146 150 152 153 157 162 165 166 165 163 163 164 167 167 172 183 183 182 182 178 177 181 185 185 184 185 190 193 197 201 203 209 214 219 227 230 231 234 235 236 237 238 239 240 241 242 243 241 237 237 240 238 236 233
18 15 19 23 26 32 32 26 31 40 42 50 57 58 63 76 88 96 104 109 107 99 97 101 108 116 122 120 118 125 137 142 143 143 146 153 157 157 160 164 168 168 166 164 165 167 167 167 173 180 181 184 184 178 178 185 188 186 184 188 194 197 197 197 201 209 210 208 215 223 226 230 233 233 233 235 236 235 235 239 243 245 245 242 234 225 222 223
21 21 22 23 30 38 32 18 21 33 39 50 59 60 62 73 87 95 100 104 99 89 93 104 108 112 116 117 117 126 139 143 143 145 151 158 162 163 163 166 169 168 167 169 170 170 168 168 174 180 181 182 180 178 183 187 187 186 187 191 196 197 197 196 199 207 211 210 212 219 222 224 226 228 229 232 233 232 234 240 245 247 245 236 227 221 220 221
17 19 21 23 28 39 36 20 19 29 33 39 48 55 62 71 82 88 93 99 96 90 100 108 104 103 110 116 120 129 141 146 147 150 157 161 163 164 163 165 168 169 170 173 174 172 171 172 176 181 184 185 181 181 186 187 183 186 192 194 195 195 195 196 199 206 211 215 218 222 225 224 223 224 224 225 227 229 231 233 237 240 237 231 228 226 225 224
12 12 17 24 29 36 38 28 24 27 27 28 34 47 67 80 85 90 99 106 97 90 102 114 108 104 112 121 125 131 142 150 152 155 160 161 160 162 165 168 170 171 172 174 175 175 176 178 180 181 183 185 184 185 188 185 183 188 194 197 196 192 192 195 199 204 206 209 215 220 224 225 224 224 221 218 219 221 221 221 223 223 220 218 217 220 224 224
15 13 13 18 26 36 39 35 31 28 26 30 42 64 88 96 92 91 97 101 85 80 93 107 111 111 122 129 126 128 141 150 154 157 159 159 161 164 169 172 173 173 174 174 173 173 176 179 181 181 182 186 187 189 189 185 185 190 194 196 196 191 192 198 201 203 203 202 206 212 218 222 222 221 220 219 221 222 218 216 219 214 204 202 202 205 214 221
16 23 21 16 23 33 39 40 35 28 29 36 52 76 91 93 94 90 86 83 77 81 91 106 118 118 124 132 130 129 140 148 153 159 159 158 166 171 169 170 174 175 176 176 171 169 171 174 177 178 182 188 189 188 188 186 189 193 192 192 192 190 193 200 204 205 206 205 207 211 216 222 223 223 225 227 230 232 226 218 217 212 201 203 215 222 223 225
9 14 17 17 20 22 25 34 35 30 34 38 48 71 90 102 113 103 98 94 84 82 87 100 114 109 108 125 133 134 139 148 159 166 163 156 168 176 171 165 172 176 176 174 170 168 170 171 174 175 177 182 184 185 186 186 192 198 194 189 189 189 193 201 205 207 209 211 212 215 219 224 226 227 230 233 235 238 234 226 223 224 228 237 245 242 232 227
Height
5725 5724 5722 5721 5720 5719 5718 5717 5717 5716 5716 5716 5716 5715 5716 5716 5716 5716 5717 5718 5720 5721 5722 5724 5726 5728 5730 5733 5737 5740 5744 5747 5749 5753 5758 5760 5761 5765 5770 5772 5775 5778 5782 5785 5788 5790 5793 5797 5800 5802 5805 5808 5812 5816 5818 5820 5823 5823 5824 5825 5826 5829 5833 5838 5843 5845 5848 5851 5855 5858 5859 5860 5860 5860 5859 5858 5859 5857 5857 5862 5864 5862 5863 5863 5862 5861 5861 5862
5720 5718 5716 5715 5713 5712 5711 5710 5710 5709 5709 5709 5709 5708 5709 5709 5709 5709 5710 5711 5712 5713 5715 5717 5719 5721 5723 5726 5730 5734 5738 5740 5743 5746 5749 5751 5755 5759 5762 5766 5769 5772 5776 5779 5782 5785 5787 5791 5794 5796 5799 5803 5807 5811 5813 5815 5817 5818 5820 5821 5822 5826 5832 5837 5840 5842 5845 5847 5851 5854 5856 5855 5855 5856 5855 5854 5854 5853 5856 5861 5860 5858 5860 5860 5859 5858 5858 5859
5713 5712 5710 5708 5707 5705 5704 5703 5702 5702 5702 5702 5701 5701 5701 5701 5702 5702 5703 5703 5704 5706 5707 5709 5711 5713 5716 5719 5723 5727 5731 5734 5736 5738 5740 5744 5749 5752 5755 5759 5762 5766 5770 5773 5776 5779 5782 5785 5788 5791 5794 5798 5803 5806 5807 5810 5812 5814 5816 5816 5819 5826 5830 5834 5836 5838 5841 5844 5848 5850 5851 5852 5851 5852 5852 5851 5850 5849 5855 5859 5856 5855 5856 5857 5857 5856 5856 5855
5707 5705 5703 5701 5700 5698 5697 5696 5695 5695 5694 5694 5694 5694 5694 5694 5695 5695 5696 5696 5697 5698 5700 5702 5704 5706 5709 5712 5716 5720 5724 5726 5729 5731 5733 5737 5740 5744 5749 5753 5756 5759 5763 5767 5770 5774 5777 5779 5782 5787 5790 5794 5798 5801 5803 5806 5808 5810 5811 5813 5819 5824 5827 5830 5834 5836 5838 5842 5844 5845 5847 5848 5848 5848 5847 5847 5845 5846 5852 5855 5853 5853 5854 5854 5854 5854 5853 5852
5701 5699 5697 5695 5693 5691 5690 5689 5688 5687 5687 5687 5687 5687 5687 5687 5687 5687 5688 5689 5690 5691 5692 5694 5696 5698 5702 5705 5709 5713 5716 5718 5721 5724 5726 5729 5733 5738 5742 5746 5750 5753 5756 5760 5764 5768 5771 5774 5777 5781 5785 5789 5792 5795 5800 5803 5805 5806 5809 5813 5818 5820 5823 5827 5830 5832 5835 5838 5840 5841 5842 5842 5843 5842 5841 5842 5842 5844 5849 5852 5852 5852 5852 5852 5852 5851 5850 5849
5694 5692 5690 5688 5686 5685 5683 5682 5681 5680 5680 5679 5679 5679 5679 5679 5680 5680 5681 5682 5683 5684 5685 5687 5689 5691 5694 5698 5702 5706 5708 5710 5713 5716 5720 5723 5727 5733 5736 5739 5744 5747 5750 5754 5758 5762 5765 5768 5772 5776 5781 5785 5787 5792 5798 5800 5801 5803 5807 5811 5814 5816 5820 5824 5827 5828 5832 5833 5834 5836 5836 5837 5838 5837 5837 5838 5838 5842 5848 5849 5850 5848 5849 5849 5848 5848 5847 5848
5688 5686 5684 5682 5680 5678 5677 5676 5675 5674 5673 5672 5672 5671 5671 5672 5672 5673 5673 5674 5676 5677 5678 5680 5682 5684 5687 5691 5695 5699 5702 5704 5706 5711 5715 5718 5722 5727 5731 5734 5737 5741 5744 5747 5752 5756 5760 5763 5767 5771 5775 5780 5784 5788 5793 5795 5797 5800 5804 5807 5810 5813 5817 5821 5823 5825 5828 5829 5831 5831 5831 5832 5834 5834 5835 5834 5835 5841 5846 5847 5847 5845 5845 5845 5844 5844 5845 5846
5682 5680 5678 5676 5674 5672 5671 5669 5668 5667 5666 5665 5664 5664 5664 5664 5664 5665 5665 5667 5668 5670 5671 5672 5675 5677 5680 5684 5687 5693 5696 5695 5699 5705 5709 5713 5717 5721 5725 5728 5731 5735 5738 5742 5746 5750 5754 5758 5762 5766 5770 5775 5779 5783 5788 5790 5792 5797 5802 5804 5807 5810 5813 5817 5819 5821 5824 5826 5827 5827 5826 5827 5829 5830 5831 5831 5833 5839 5842 5843 5844 5842 5842 5841 5841 5842 5842 5843
5677 5675 5672 5670 5668 5666 5665 5663 5661 5660 5659 5658 5657 5656 5656 5656 5656 5657 5658 5659 5660 5662 5664 5665 5668 5671 5674 5676 5680 5687 5687 5686 5694 5700 5703 5707 5711 5714 5717 5721 5726 5730 5734 5737 5740 5744 5749 5753 5756 5760 5764 5770 5773 5778 5782 5784 5789 5795 5800 5801 5803 5807 5810 5813 5815 5818 5821 5822 5824 5823 5822 5823 5825 5825 5826 5828 5830 5835 5839 5840 5841 5840 5839 5838 5838 5839 5839 5840
5672 5670 5667 5665 5663 5661 5659 5657 5656 5654 5653 5651 5650 5649 5649 5648 5649 5649 5650 5651 5652 5654 5656 5658 5661 5664 5667 5670 5675 5681 5678 5681 5690 5694 5696 5701 5705 5708 5710 5715 5720 5724 5729 5732 5736 5740 5745 5748 5751 5754 5759 5763 5768 5773 5776 5781 5788 5792 5794 5797 5799 5803 5806 5809 5812 5815 5817 5818 5819 5820 5820 5820 5821 5820 5821 5825 5827 5832 5836 5837 5837 5837 5836 5835 5835 5836 5835 5836
5667 5665 5663 5660 5658 5656 5654 5652 5651 5649 5647 5645 5644 5642 5641 5641 5640 5641 5642 5642 5644 5646 5647 5650 5653 5657 5660 5664 5670 5673 5670 5676 5683 5685 5689 5695 5699 5702 5705 5709 5713 5718 5722 5727 5731 5735 5739 5742 5745 5748 5753 5758 5762 5767 5772 5777 5782 5785 5788 5792 5795 5798 5802 5805 5808 5812 5813 5814 5816 5817 5818 5817 5816 5816 5819 5822 5824 5829 5833 5833 5834 5834 5833 5832 5831 5832 5831 5832
5663 5660 5658 5655 5653 5651 5648 5646 5644 5643 5641 5639 5637 5635 5633 5632 5632 5632 5633 5634 5635 5636 5639 5642 5645 5650 5653 5659 5666 5663 5662 5669 5673 5678 5684 5688 5692 5695 5698 5703 5707 5711 5716 5721 5726 5730 5733 5736 5739 5743 5748 5753 5757 5762 5767 5771 5775 5779 5784 5787 5791 5793 5796 5801 5805 5808 5809 5811 5813 5814 5814 5812 5813 5816 5817 5818 5820 5826 5830 5830 5831 5831 5830 5829 5828 5828 5828 5829
5658 5655 5652 5650 5647 5644 5642 5639 5637 5635 5634 5631 5629 5627 5625 5624 5622 5622 5623 5624 5626 5627 5631 5633 5637 5642 5645 5655 5661 5653 5654 5662 5666 5673 5679 5682 5686 5689 5692 5696 5700 5705 5710 5715 5719 5724 5728 5730 5734 5739 5743 5748 5753 5758 5762 5765 5770 5776 5780 5783 5787 5788 5792 5798 5802 5804 5805 5807 5810 5810 5809 5810 5813 5816 5816 5816 5818 5823 5826 5826 5827 5828 5827 5826 5825 5826 5827 5827
5652 5650 5647 5644 5640 5638 5635 5632 5630 5627 5625 5623 5620 5618 5616 5614 5613 5612 5612 5613 5615 5618 5622 5625 5630 5633 5639 5652 5652 5643 5648 5657 5662 5670 5672 5674 5679 5683 5687 5690 5694 5698 5703 5708 5712 5717 5722 5725 5730 5734 5738 5744 5749 5753 5757 5762 5767 5773 5775 5778 5782 5784 5789 5795 5798 5800 5801 5804 5806 5805 5806 5809 5813 5815 5815 5815 5816 5820 5823 5824 5824 5825 5825 5824 5823 5824 5825 5826
5647 5644 5641 5637 5634 5631 5628 5625 5622 5619 5617 5614 5611 5607 5605 5603 5602 5601 5600 5601 5603 5608 5613 5616 5621 5625 5634 5645 5642 5637 5645 5650 5654 5659 5661 5666 5671 5675 5680 5683 5688 5692 5697 5702 5705 5711 5715 5719 5724 5729 5734 5739 5743 5748 5753 5757 5762 5767 5770 5773 5778 5781 5787 5791 5793 5797 5799 5800 5802 5801 5804 5809 5811 5813 5814 5814 5815 5819 5821 5821 5822 5823 5823 5823 5821 5821 5822 5823
5643 5639 5635 5631 5628 5624 5621 5617 5614 5611 5608 5605 5601 5597 5594 5592 5590 5589 5588 5589 5592 5598 5604 5607 5611 5618 5628 5635 5632 5633 5637 5639 5642 5648 5654 5661 5665 5668 5672 5677 5683 5687 5691 5695 5699 5704 5708 5713 5719 5724 5729 5733 5738 5743 5747 5751 5757 5762 5766 5770 5774 5777 5782 5786 5789 5794 5796 5797 5798 5799 5803 5808 5810 5811 5812 5813 5815 5817 5818 5819 5820 5821 5821 5821 5819 5819 5820 5821
5638 5635 5630 5626 5622 5618 5614 5611 5607 5604 5600 5597 5593 5588 5583 5579 5577 5576 5575 5577 5581 5587 5592 5596 5601 5610 5620 5624 5624 5625 5627 5631 5637 5643 5650 5655 5658 5662 5666 5673 5678 5681 5685 5689 5693 5698 5703 5708 5714 5719 5724 5729 5734 5738 5741 5746 5752 5757 5761 5765 5768 5772 5777 5783 5787 5791 5793 5794 5795 5797 5801 5806 5808 5808 5810 5812 5813 5815 5816 5817 5817 5818 5818 5818 5818 5817 5818 5819
5634 5630 5626 5622 5617 5613 5609 5605 5602 5598 5594 5590 5584 5577 5570 5566 5565 5564 5564 5567 5570 5575 5579 5584 5591 5602 5610 5612 5613 5615 5621 5629 5633 5637 5644 5650 5653 5656 5661 5667 5671 5675 5679 5683 5688 5694 5698 5703 5708 5713 5718 5724 5728 5732 5737 5744 5749 5753 5755 5759 5763 5768 5773 5780 5785 5788 5790 5793 5794 5796 5799 5802 5805 5806 5807 5809 5811 5812 5813 5814 5814 5815 5816 5816 5816 5815 5815 5817
5630 5626 5622 5617 5612 5608 5605 5601 5597 5594 5589 5583 5575 5566 5559 5557 5557 5556 5557 5558 5561 5564 5566 5571 5580 5592 5598 5599 5603 5609 5617 5624 5627 5630 5637 5643 5647 5651 5656 5660 5663 5668 5673 5678 5684 5688 5693 5698 5702 5707 5714 5720 5725 5730 5735 5741 5745 5748 5752 5757 5762 5766 5771 5777 5782 5785 5789 5791 5793 5795 5797 5799 5802 5803 5805 5807 5809 5810 5811 5812 5812 5813 5814 5814 5813 5813 5814 5815
5626 5621 5617 5612 5607 5604 5600 5597 5594 5589 5583 5576 5566 5557 5553 5553 5553 5552 5552 5552 5553 5555 5556 5560 5569 5579 5585 5588 5593 5603 5610 5615 5620 5625 5630 5636 5642 5646 5650 5654 5657 5663 5668 5675 5679 5683 5688 5692 5698 5707 5716 5721 5724 5727 5732 5736 5740 5745 5750 5755 5760 5764 5769 5775 5779 5783 5787 5789 5791 5793 5795 5797 5799 5801 5802 5804 5806 5807 5808 5809 5810 5811 5811 5812 5811 5812 5813 5814
5621 5617 5612 5607 5603 5599 5596 5593 5589 5584 5578 5569 5560 5553 5550 5550 5550 5549 5548 5548 5549 5548 5549 5552 5557 5567 5574 5577 5584 5593 5600 5607 5615 5620 5624 5631 5637 5641 5644 5648 5652 5659 5666 5671 5673 5678 5682 5689 5700 5709 5713 5715 5718 5722 5727 5732 5737 5743 5747 5751 5756 5760 5766 5772 5776 5781 5784 5786 5787 5790 5792 5794 5796 5798 5799 5801 5803 5805 5806 5807 5807 5808 5809 5810 5810 5811 5812 5812
5617 5612 5607 5602 5599 5596 5592 5589 5585 5580 5573 5565 5556 5550 5548 5548 5547 5546 5545 5546 5546 5543 5545 5546 5548 5556 5564 5567 5573 5581 5590 5601 5609 5613 5618 5624 5631 5637 5641 5643 5649 5657 5661 5663 5667 5673 5680 5691 5701 5703 5703 5708 5714 5718 5723 5728 5734 5739 5743 5747 5752 5757 5762 5767 5773 5778 5780 5781 5784 5787 5788 5790 5792 5794 5796 5798 5800 5801 5803 5804 5805 5806 5807 5808 5808 5809 5810 5810
5612 5607 5603 5599 5595 5592 5589 5585 5581 5576 5569 5562 5554 5548 5547 5545 5544 5544 5543 5543 5543 5541 5540 5540 5542 5547 5555 5561 5564 5570 5582 5595 5601 5606 5611 5618 5625 5632 5636 5640 5647 5651 5654 5659 5665 5672 5680 5689 5692 5692 5697 5705 5710 5714 5719 5724 5730 5734 5739 5743 5748 5754 5758 5763 5770 5775 5775 5777 5781 5784 5785 5786 5787 5789 5792 5795 5797 5798 5801 5802 5803 5804 5805 5806 5806 5807 5808 5808
5608 5603 5599 5596 5593 5589 5586 5582 5578 5573 5567 5560 5553 5548 5546 5544 5542 5541 5540 5540 5540 5538 5534 5534 5538 5543 5551 5557 5555 5561 5576 5586 5593 5600 5605 5612 5619 5624 5631 5637 5642 5645 5651 5659 5665 5671 5677 5681 5683 5688 5696 5702 5706 5711 5715 5720 5726 5731 5735 5740 5746 5751 5755 5761 5768 5771 5772 5774 5777 5780 5781 5780 5782 5786 5789 5792 5794 5796 5798 5800 5801 5802 5803 5803 5804 5805 5806 5807
5605 5601 5597 5593 5590 5586 5583 5579 5574 5570 5565 5560 5553 5548 5545 5543 5541 5539 5538 5537 5537 5535 5532 5533 5537 5541 5545 5547 5548 5557 5568 5576 5586 5594 5599 5606 5613 5620 5626 5630 5634 5641 5650 5657 5661 5666 5670 5674 5681 5689 5694 5698 5703 5708 5713 5718 5723 5728 5732 5737 5743 5748 5753 5759 5764 5767 5769 5770 5771 5774 5776 5774 5778 5784 5787 5789 5791 5793 5795 5797 5799 5800 5800 5801 5802 5803 5804 5805
5603 5598 5594 5591 5587 5583 5580 5576 5572 5568 5564 5559 5554 5549 5545 5542 5540 5538 5537 5536 5535 5534 5533 5533 5535 5537 5539 5541 5547 5554 5558 5569 5582 5587 5592 5600 5606 5613 5618 5623 5631 5639 5647 5652 5656 5660 5663 5670 5680 5686 5690 5696 5701 5705 5710 5716 5720 5725 5730 5735 5741 5745 5751 5756 5759 5762 5766 5766 5768 5773 5773 5772 5776 5781 5783 5786 5788 5790 5792 5794 5796 5797 5798 5799 5801 5802 5802 5803
5600 5596 5592 5588 5585 5581 5577 5574 5570 5566 5562 5559 5555 5550 5546 5543 5540 5538 5537 5535 5534 5534 5533 5532 5533 5534 5534 5537 5541 5545 5552 5567 5576 5579 5587 5595 5600 5606 5611 5619 5628 5635 5641 5644 5648 5655 5661 5668 5676 5680 5685 5690 5696 5703 5708 5713 5717 5723 5729 5734 5738 5743 5749 5753 5755 5759 5763 5765 5768 5771 5771 5770 5773 5777 5781 5783 5785 5787 5789 5791 5794 5795 5797 5798 5799 5800 5800 5801
5598 5593 5589 5586 5583 5579 5575 5572 5568 5564 5561 5558 5555 5551 5547 5544 5542 5540 5538 5537 5535 5534 5533 5532 5532 5533 5532 5531 5534 5540 5551 5563 5568 5574 5584 5589 5593 5600 5608 5616 5623 5630 5635 5639 5645 5654 5659 5664 5671 5675 5679 5685 5694 5701 5706 5710 5715 5722 5728 5731 5736 5742 5748 5751 5753 5756 5759 5760 5761 5764 5766 5767 5770 5774 5777 5778 5780 5784 5787 5790 5792 5793 5795 5796 5797 5798 5799 5800
5596 5592 5588 5584 5581 5578 5574 5570 5567 5563 5560 5557 5554 5551 5548 5545 5543 5541 5540 5538 5536 5535 5533 5532 5532 5532 5532 5531 5534 5538 5544 5552 5561 5570 5577 5581 5588 5597 5606 5612 5617 5622 5628 5635 5643 5648 5652 5660 5668 5672 5677 5685 5693 5698 5703 5707 5713 5721 5726 5729 5735 5740 5745 5749 5751 5753 5755 5754 5755 5759 5762 5764 5766 5770 5772 5773 5776 5781 5786 5788 5790 5791 5792 5794 5795 5796 5797 5798
5594 5590 5586 5583 5579 5576 5573 5569 5566 5562 5559 5556 5553 5551 5548 5546 5543 5541 5540 5539 5537 5535 5534 5533 5532 5532 5532 5532 5534 5536 5540 5547 5555 5562 5568 5575 5584 5594 5602 5607 5611 5616 5623 5630 5636 5641 5649 5658 5665 5671 5677 5684 5690 5694 5700 5704 5710 5719 5723 5727 5733 5737 5742 5745 5746 5749 5750 5748 5750 5755 5759 5762 5764 5766 5767 5770 5776 5781 5784 5786 5788 5789 5790 5792 5793 5794 5795 5796
5594 5589 5585 5581 5578 5574 5571 5568 5564 5560 5557 5555 5552 5550 5548 5545 5543 5541 5540 5538 5537 5535 5534 5533 5533 5532 5532 5532 5533 5535 5539 5544 5549 5555 5564 5572 5579 5588 5595 5600 5605 5612 5619 5625 5632 5640 5647 5652 5660 5669 5674 5679 5685 5691 5696 5700 5707 5715 5720 5725 5731 5735 5739 5740 5742 5744 5744 5744 5748 5753 5756 5759 5760 5762 5765 5770 5775 5778 5781 5784 5786 5787 5788 5790 5791 5791 5792 5793
5593 5589 5585 5580 5576 5573 5569 5566 5563 5559 5556 5553 5551 5549 5547 5545 5543 5541 5539 5537 5536 5535 5534 5533 5533 5533 5532 5532 5533 5535 5538 5541 5545 5552 5560 5568 5575 5583 5590 5597 5605 5613 5619 5625 5633 5640 5645 5651 5660 5665 5668 5673 5679 5686 5692 5696 5703 5711 5716 5721 5726 5731 5734 5736 5738 5741 5741 5742 5746 5750 5753 5754 5755 5760 5765 5770 5773 5775 5779 5782 5784 5784 5786 5788 5788 5789 5790 5791
5593 5589 5584 5580 5576 5572 5568 5565 5562 5558 5555 5553 5550 5548 5545 5543 5542 5540 5538 5537 5535 5535 5534 5534 5533 5532 5532 5532 5532 5533 5536 5540 5544 5550 5557 5565 5573 5580 5587 5596 5606 5614 5622 5628 5633 5637 5643 5650 5654 5656 5661 5669 5676 5682 5688 5692 5698 5705 5711 5716 5721 5725 5728 5731 5736 5739 5739 5740 5743 5748 5750 5751 5753 5758 5764 5767 5770 5773 5776 5779 5781 5782 5783 5785 5786 5787 5788 5789
5594 5589 5585 5580 5575 5571 5567 5564 5561 5557 5554 5551 5549 5547 5544 5542 5541 5540 5538 5536 5535 5534 5534 5533 5532 5531 5531 5532 5532 5533 5535 5539 5544 5549 5555 5561 5568 5574 5582 5592 5602 5611 5619 5625 5629 5634 5640 5644 5648 5654 5661 5668 5675 5683 5689 5692 5697 5703 5708 5713 5717 5721 5725 5730 5734 5736 5737 5737 5741 5745 5747 5748 5750 5755 5760 5765 5768 5770 5772 5775 5778 5779 5781 5783 5784 5785 5786 5787
5594 5590 5585 5580 5576 5571 5567 5564 5561 5557 5554 5551 5548 5546 5544 5542 5540 5539 5538 5536 5534 5533 5532 5531 5530 5530 5530 5530 5531 5533 5535 5538 5543 5548 5553 5559 5565 5573 5581 5590 5600 5608 5614 5620 5628 5634 5639 5644 5651 5658 5663 5668 5675 5682 5687 5691 5695 5702 5708 5710 5713 5720 5727 5731 5733 5735 5736 5737 5739 5742 5743 5745 5748 5753 5758 5761 5764 5765 5768 5772 5775 5777 5779 5781 5782 5784 5785 5785
5595 5590 5586 5581 5576 5572 5568 5565 5561 5557 5554 5550 5547 5545 5542 5541 5539 5539 5538 5536 5534 5533 5531 5530 5530 5530 5530 5530 5531 5533 5536 5539 5543 5547 5552 5559 5566 5574 5582 5591 5600 5607 5613 5621 5629 5635 5640 5646 5653 5658 5661 5666 5673 5679 5683 5686 5692 5700 5703 5706 5713 5722 5726 5728 5731 5733 5735 5736 5737 5739 5741 5743 5746 5750 5754 5757 5760 5762 5765 5769 5772 5775 5777 5778 5780 5781 5782 5783
5596 5592 5587 5582 5578 5574 5570 5566 5562 5558 5553 5550 5546 5544 5541 5540 5539 5539 5538 5536 5535 5533 5532 5531 5531 5530 5530 5531 5532 5535 5539 5543 5545 5549 5555 5561 5567 5574 5581 5590 5598 5606 5615 5623 5629 5635 5642 5648 5653 5657 5661 5666 5672 5678 5682 5685 5691 5697 5700 5707 5715 5720 5721 5724 5728 5730 5732 5734 5735 5737 5739 5741 5743 5747 5750 5753 5756 5760 5763 5767 5770 5772 5774 5776 5777 5778 5779 5780
5597 5593 5588 5583 5580 5577 5573 5568 5563 5559 5555 5550 5547 5544 5541 5540 5539 5539 5538 5537 5536 5535 5534 5533 5532 5532 5531 5533 5536 5539 5543 5546 5549 5553 5557 5563 5570 5577 5582 5589 5598 5606 5616 5623 5628 5635 5641 5646 5651 5656 5661 5665 5669 5674 5679 5682 5688 5694 5701 5709 5713 5714 5717 5720 5723 5725 5728 5731 5733 5735 5738 5739 5741 5744 5747 5751 5755 5759 5762 5766 5768 5770 5772 5774 5774 5775 5776 5778
5599 5595 5590 5586 5583 5579 5575 5570 5566 5562 5558 5553 5549 5546 5543 5541 5540 5540 5539 5539 5537 5536 5536 5535 5534 5535 5535 5537 5541 5545 5548 5551 5553 5556 5560 5566 5573 5580 5584 5590 5599 5608 5616 5623 5629 5635 5640 5644 5649 5654 5659 5663 5666 5669 5674 5680 5686 5692 5699 5706 5710 5712 5716 5718 5720 5723 5726 5728 5730 5733 5734 5736 5738 5742 5746 5751 5755 5758 5761 5764 5767 5769 5770 5771 5772 5773 5774 5775
5601 5597 5592 5588 5585 5581 5577 5572 5568 5565 5560 5556 5553 5549 5547 5545 5544 5542 5542 5541 5539 5539 5538 5538 5538 5539 5541 5543 5546 5549 5552 5555 5557 5560 5564 5569 5575 5581 5587 5592 5601 5611 5618 5624 5630 5635 5639 5643 5648 5653 5657 5660 5662 5667 5673 5679 5685 5690 5693 5700 5707 5711 5715 5718 5720 5721 5723 5726 5728 5730 5731 5733 5737 5741 5745 5750 5753 5756 5759 5762 5764 5767 5768 5770 5770 5771 5773 5774
5602 5598 5594 5590 5586 5582 5578 5574 5570 5567 5563 5560 5557 5554 5551 5549 5547 5545 5544 5543 5542 5542 5542 5542 5542 5544 5546 5549 5551 5553 5555 5557 5560 5563 5567 5570 5576 5584 5591 5595 5602 5611 5619 5625 5629 5634 5638 5643 5647 5651 5654 5658 5663 5670 5676 5680 5685 5689 5693 5699 5705 5709 5712 5715 5716 5718 5721 5724 5726 5728 5730 5732 5736 5739 5743 5747 5750 5753 5756 5758 5761 5764 5766 5768 5769 5770 5772 5773
5604 5600 5596 5592 5587 5583 5580 5577 5573 5570 5566 5563 5561 5558 5556 5553 5551 5549 5548 5546 5546 5546 5546 5547 5548 5549 5551 5553 5555 5556 5558 5559 5561 5566 5570 5573 5580 5589 5595 5600 5605 5610 5617 5625 5630 5634 5638 5642 5645 5650 5655 5660 5665 5670 5676 5681 5685 5689 5693 5698 5703 5707 5710 5712 5714 5717 5720 5721 5723 5726 5729 5731 5734 5737 5741 5745 5748 5751 5753 5755 5758 5761 5764 5766 5768 5769 5770 5771
5605 5602 5598 5594 5590 5586 5583 5580 5577 5573 5570 5567 5564 5562 5560 5558 5556 5555 5553 5551 5551 5551 5551 5552 5553 5554 5555 5557 5558 5559 5561 5562 5564 5567 5573 5579 5586 5593 5597 5602 5608 5612 5617 5624 5629 5633 5637 5640 5645 5650 5655 5660 5664 5669 5675 5680 5684 5687 5691 5695 5700 5705 5708 5711 5714 5717 5719 5720 5722 5724 5727 5729 5731 5735 5739 5742 5745 5747 5749 5752 5755 5758 5761 5763 5765 5767 5768 5770
5606 5603 5601 5597 5593 5590 5586 5583 5580 5577 5575 5571 5568 5565 5564 5563 5562 5560 5558 5557 5557 5556 5556 5556 5557 5558 5559 5560 5561 5562 5563 5566 5568 5571 5577 5584 5590 5595 5599 5604 5609 5614 5618 5622 5627 5632 5637 5640 5645 5649 5653 5657 5661 5666 5671 5676 5680 5685 5689 5693 5698 5702 5706 5709 5713 5715 5718 5719 5720 5722 5725 5727 5730 5733 5737 5739 5742 5744 5747 5749 5752 5755 5758 5761 5762 5764 5766 5767
5608 5605 5603 5600 5596 5592 5589 5586 5583 5581 5579 5576 5572 5570 5568 5567 5566 5565 5563 5562 5562 5562 5562 5561 5562 5563 5563 5563 5564 5566 5566 5569 5572 5575 5580 5588 5593 5596 5601 5606 5611 5615 5619 5623 5627 5632 5637 5640 5645 5648 5650 5653 5657 5663 5669 5674 5679 5684 5688 5692 5697 5701 5704 5707 5710 5713 5715 5717 5719 5721 5723 5725 5729 5732 5734 5736 5738 5741 5743 5746 5749 5752 5755 5758 5760 5761 5762 5764
5610 5608 5605 5602 5599 5594 5591 5589 5586 5584 5583 5580 5578 5575 5573 5571 5570 5569 5567 5566 5566 5566 5566 5566 5566 5566 5566 5567 5568 5570 5571 5574 5577 5578 5583 5590 5595 5599 5604 5609 5612 5617 5621 5624 5627 5632 5637 5640 5644 5648 5652 5655 5660 5666 5670 5674 5678 5683 5687 5691 5695 5698 5701 5705 5708 5710 5713 5716 5717 5719 5721 5724 5726 5729 5731 5733 5735 5738 5740 5743 5746 5749 5752 5754 5756 5758 5759 5761
5611 5609 5606 5604 5601 5597 5594 5592 5589 5587 5586 5584 5582 5580 5578 5576 5575 5573 5572 5570 5570 5571 5570 5570 5570 5570 5570 5571 5572 5574 5577 5579 5581 5583 5587 5591 5596 5601 5606 5610 5614 5618 5622 5625 5628 5632 5637 5641 5644 5648 5653 5657 5662 5667 5670 5672 5677 5682 5686 5689 5693 5696 5699 5702 5706 5709 5712 5714 5715 5716 5719 5721 5724 5726 5729 5731 5733 5736 5739 5741 5744 5747 5749 5751 5752 5754 5756 5757
5610 5609 5607 5605 5602 5600 5597 5595 5592 5590 5588 5587 5585 5584 5583 5581 5579 5578 5576 5575 5575 5576 5575 5575 5575 5575 5575 5576 5577 5578 5581 5584 5585 5587 5590 5593 5597 5603 5607 5610 5614 5618 5622 5625 5628 5631 5636 5640 5644 5648 5652 5656 5661 5664 5667 5672 5677 5681 5685 5688 5691 5695 5699 5702 5704 5707 5709 5711 5713 5715 5717 5720 5722 5724 5727 5729 5731 5734 5737 5739 5742 5744 5745 5747 5749 5750 5752 5754
5611 5610 5609 5607 5604 5601 5599 5597 5595 5593 5591 5589 5588 5587 5586 5584 5583 5582 5580 5579 5579 5579 5579 5579 5579 5579 5580 5580 5581 5583 5586 5588 5589 5591 5593 5596 5600 5605 5608 5611 5615 5619 5623 5626 5629 5632 5636 5640 5644 5647 5651 5655 5659 5662 5666 5671 5676 5680 5683 5686 5689 5693 5698 5701 5703 5705 5706 5709 5711 5714 5715 5718 5720 5722 5725 5727 5729 5732 5734 5737 5739 5741 5743 5744 5746 5747 5749 5751
5614 5612 5610 5608 5605 5603 5601 5600 5598 5596 5594 5592 5591 5589 5588 5587 5586 5585 5584 5583 5583 5582 5582 5583 5583 5582 5583 5584 5585 5587 5590 5593 5595 5596 5597 5599 5602 5606 5610 5613 5617 5620 5624 5627 5629 5632 5636 5640 5644 5647 5650 5654 5657 5661 5666 5670 5674 5678 5681 5685 5688 5692 5696 5699 5701 5702 5704 5706 5709 5711 5713 5715 5717 5720 5722 5724 5726 5729 5732 5735 5737 5739 5741 5743 5744 5746 5747 5749
5614 5612 5610 5609 5607 5605 5604 5602 5601 5599 5597 5595 5594 5592 5590 5589 5588 5587 5587 5586 5586 5585 5585 5586 5586 5586 5587 5587 5589 5591 5594 5597 5600 5602 5602 5603 5605 5607 5611 5615 5620 5622 5625 5627 5630 5633 5637 5641 5644 5647 5650 5653 5657 5661 5665 5670 5674 5676 5679 5684 5688 5691 5694 5696 5699 5701 5703 5705 5707 5708 5710 5712 5715 5717 5719 5721 5724 5727 5731 5733 5735 5737 5739 5741 5742 5744 5745 5747
5613 5611 5610 5610 5609 5607 5605 5604 5603 5601 5599 5597 5596 5594 5593 5591 5590 5590 5590 5589 5589 5588 5589 5589 5590 5590 5590 5591 5592 5594 5596 5599 5601 5603 5605 5607 5608 5610 5613 5616 5620 5623 5626 5628 5631 5634 5638 5641 5644 5647 5650 5653 5656 5660 5665 5669 5672 5674 5678 5683 5687 5690 5692 5695 5697 5700 5701 5703 5705 5707 5708 5710 5713 5715 5717 5720 5722 5725 5729 5732 5734 5736 5738 5739 5740 5742 5743 5744